Regional Weather Roundup
Issued by NWS

Home | Current Version | Previous Version | Graphics & Text | Print | Product List | Glossary On
Versions: 1 2 3 4 5 6 7 8 9 10 11 12 13 14 15 16 17 18 19 20 21 22 23 24 25 26 27 28 29 30 31 32 33 34 35 36 37 38 39 40 41 42 43 44 45 46 47 48 49 50
866
ASUS45 KBOU 161810
RWRCO

WEATHER ROUNDUP FOR COLORADO
NATIONAL WEATHER SERVICE DENVER/BOULDER CO
1100 AM MST TUE JAN 16 2018

NOTE: "FAIR" INDICATES FEW OR NO CLOUDS BELOW 12000 FEET WITH NO
SIGNIFICANT WEATHER AND/OR OBSTRUCTIONS TO VISIBILITY.

COZ001>005-013-030-031-161900-
...NORTHWEST COLORADO...

CITY           SKY/WX    TMP DP  RH WIND       PRES   REMARKS
CRAIG          FAIR      14   1  56 CALM      30.46S
HAYDEN         FAIR      14   1  56 E8        30.44F WCI   3
MEEKER         FAIR      21   4  47 CALM      30.43F
RABBIT EARS PA FAIR      19   5  53 CALM      30.33S
STEAMBOAT SPGS FAIR       2  -3  80 CALM      30.43S
WALDEN         FAIR      10  -4  52 CALM      30.40F
$$

COZ006>008-011-161900-
...WEST CENTRAL VALLEYS...

CITY           SKY/WX    TMP DP  RH WIND       PRES   REMARKS
GRAND JUNCTION FAIR      35  14  42 SE10      30.45S WCI  27
MONTROSE       FAIR      30  16  56 S3        30.45F
EAGLE          FAIR      20   5  52 CALM      30.50F
RIFLE          FAIR      27  14  58 CALM      30.46F
DELTA          FAIR      32  17  54 CALM      30.46F
NUCLA          FAIR      32  19  59 N3        30.44S
$$

COZ017>023-064>068-161900-
...SOUTHWEST COLORADO...

CITY           SKY/WX    TMP DP  RH WIND       PRES   REMARKS
DURANGO        FAIR      31  21  66 VRB3      30.39F
CORTEZ         FAIR      36  23  59 CALM      30.40F
PAGOSA SPRINGS FAIR      31  18  57 SW3       30.37F
TELLURIDE      FAIR      31  -5  20 CALM      30.36S
WOLF CREEK PAS FAIR      27  -8  22 CALM      30.40S
$$

COZ009-010-012-014-032>034-037-058>063-161900-
...CENTRAL COLORADO...

CITY           SKY/WX    TMP DP  RH WIND       PRES   REMARKS
ASPEN          FAIR      21   6  52 NW3       30.38S
BUENA VISTA    FAIR      24   3  41 CALM      30.37F
COPPER MTN     NOT AVBL
BERTHOUD PASS  FAIR      10   0  61 NW16      30.30S WCI  -7
COTTONWOOD PAS NOT AVBL
GUNNISON       CLOUDY    19   8  62 CALM      30.43F
KREMMLING      FAIR      12  -2  52 CALM      30.50F
LEADVILLE      FAIR      22 -19  15 CALM      30.31F
MONARCH PASS   FAIR      19 -11  25 W15       30.43S WCI   5
SALIDA         FAIR      25   8  47 N3        30.46F
SUNLIGHT       FAIR      23 -11  21 CALM      30.40S
WILKERSON PASS FAIR      23 -40   5 W5        30.33F WCI  17
$$

COZ069>075-161900-
...SAN LUIS VALLEY/SANGRE DE CRISTO MOUNTAINS...

CITY           SKY/WX    TMP DP  RH WIND       PRES   REMARKS
ALAMOSA        CLOUDY    21  14  74 CALM      30.42F
DEL NORTE      CLOUDY    20  13  74 N5        30.42F WCI  13
LA VETA PASS   CLOUDY    18  12  79 SW16G22     N/A  FOG     WCI   3
SAGUACHE       CLOUDY    21  14  73 CALM      30.43F
$$

COZ035-036-038>040-161900-
...NORTHERN COLORADO FRONT RANGE...

CITY           SKY/WX    TMP DP  RH WIND       PRES   REMARKS
DENVER INTL AP PTSUNNY   24   8  50 SW5       30.42F WCI  18
DMNS CITY PARK NOT AVBL
AURORA         MOSUNNY   27   1  33 S3        30.41F
FRONT RANGE AP NOT AVBL
ERIE MUNI ARPT FAIR      19  10  67 CALM      30.50F
BOULDER MUN AP FAIR      19   7  58 CALM      30.42F
CENTENNIAL     FAIR      27  -2  28 SE3       30.39F
BROOMFIELD     MOSUNNY   25  14  63 VRB3      30.41F
FORT COLLINS   FAIR      12   3  67 CALM      30.45F
LONGMONT       FAIR      23   8  50 CALM      30.46F
$$

COZ041-046-047-076>085-087-088-161900-
...PIKES PEAK/PALMER DIVIDE AND SOUTHERN FOOTHILLS...

CITY           SKY/WX    TMP DP  RH WIND       PRES   REMARKS
COLO. SPRINGS  FAIR      22  13  68 S5        30.42F WCI  16
A. F. ACADEMY  FAIR      26   0  32 S7        30.38F WCI  18
SCHRIEVER AFB  FAIR      22   9  56 SW6       30.41F WCI  15
CHEYENNE MTN   FAIR      22  17  79 SE3       30.32F
ELLICOTT         N/A    N/A N/A N/A W6        30.40F
FALCON         FAIR      26   6  44 SW8       30.38F WCI  17
FORT CARSON    FAIR      18  11  72 S5        30.42F WCI  11
LIMON          FAIR      23  -2  33 NW3       30.44F
MONUMENT HILL  FAIR      25  -4  28 CALM      30.38F
CANON CITY     FAIR      21  12  68 CALM      30.46F
WALSENBURG     FAIR      27  23  86 CALM      30.43F
TRINIDAD       FAIR      24  20  84 S6        30.45F WCI  17
$$

COZ042>045-048>051-090-091-161900-
...NORTHEAST COLORADO...

CITY           SKY/WX    TMP DP  RH WIND       PRES   REMARKS
GREELEY ARPT   FAIR      16   3  56 W3        30.49F
AKRON          FAIR      15   2  56 SW10      30.48F WCI   2
BURLINGTON     FAIR      17  -1  45 NW5       30.54F WCI  10
WRAY           FAIR      18   1  49 MISG      30.59F
YUMA           FAIR      18   1  49 SW3       30.53F
STERLING       FAIR      16   5  62 S9        30.52F WCI   4
HOLYOKE        FAIR      19   3  49 S3        30.57F
FORT MORGAN    FAIR      14  -1  49 W5        30.50F WCI   7
$$

COZ086-089-092>099-161900-
...SOUTHEAST COLORADO...

CITY           SKY/WX    TMP DP  RH WIND       PRES   REMARKS
PUEBLO         FAIR      20   6  55 SE5       30.51F WCI  13
LA JUNTA       FAIR      21   1  41 S7        30.56F WCI  12
LAMAR          FAIR      20  -2  38 N3        30.59F
SPRINGFIELD      N/A     20   0  41 SE5       30.54F WCI  13
$$




USA.gov is the U.S. government's official web portal to all federal, state and local government web resources and services.